Overview Statistics Trail Chart Weather Telemetry Raw packets
 

This is the latest recevied weather packets stored in our database for station/object IZ2XCK-13. If no packets are shown the sender has not sent any weather packets the latest 10 day(s).

<< 3 4 5 6 7 8 9 >>
Time Temp. Humidity Pressure Rain* Wind** Luminosity Snow
1788418411 20.56° C 50% 1023.5 hPa - - - -
1788417211 20.56° C 47% 1023.4 hPa - - - -
1788416010 18.89° C 52% 1023.4 hPa - - - -
1788414810 18.89° C 52% 1023.3 hPa - - - -
1788413610 19.44° C 51% 1023 hPa - - - -
1788412409 18.89° C 50% 1022.8 hPa - - - -
1788411209 19.44° C 50% 1022.8 hPa - - - -
1788410009 18.89° C 52% 1022.5 hPa - - - -
1788408808 19.44° C 49% 1022.4 hPa - - - -
1788407608 20° C 51% 1022.3 hPa - - - -
1788406408 20° C 49% 1022.3 hPa - - - -
1788404008 20° C 53% 1022.4 hPa - - - -
1788402807 20° C 53% 1022.4 hPa - - - -
1788401609 20° C 52% 1022.4 hPa - - - -
1788400406 20.56° C 54% 1022.3 hPa - - - -
1788399206 20.56° C 55% 1022.5 hPa - - - -
1788398006 20.56° C 56% 1022.4 hPa - - - -
1788396805 21.11° C 55% 1022.4 hPa - - - -
1788395605 21.11° C 56% 1022.3 hPa - - - -
1788394405 21.67° C 57% 1022.4 hPa - - - -
1788393204 21.11° C 58% 1022.3 hPa - - - -
1788392004 22.22° C 58% 1022.2 hPa - - - -
1788390804 22.22° C 59% 1022.2 hPa - - - -
1788389603 22.22° C 58% 1022.1 hPa - - - -
1788388403 22.22° C 58% 1022.1 hPa - - - -

* Rain since midnight (hover to see other rain measurements)
** Current wind speed in m/s (hover to see current wind gust speed)